Simultaneous Nadir Overpasses (SNOs) Predictions

Prediction of SNOs over PacNW region [( 10.00, 139.50) to ( 22.70, 165.60)] between AQUA and NPP Satellites:

Table of predicted SNOs over PacNW region for the next 30.0 days since TLE Epoch: 10/22/2016
Index Date (AQUA) Time (AQUA) AQUA Lat,Lon Date (NPP) Time (NPP) NPP Lat,Lon Distance(km) Time Diff (sec)
1 10/23/2016 02:41:50 22.67, 159.87 10/23/2016 02:38:20 26.66, 157.41 508.98 210
2 10/28/2016 15:09:28 22.64, 159.84 10/28/2016 15:11:42 23.22, 157.19 278.30 134
3 10/31/2016 03:31:19 22.67, 147.50 10/31/2016 03:27:52 22.34, 145.80 178.25 207
4 11/05/2016 15:58:56 22.63, 147.47 11/05/2016 16:02:25 23.36, 144.52 312.41 209
5 11/08/2016 02:41:54 22.66, 159.86 11/08/2016 02:38:25 26.84, 157.32 531.00 209
6 11/13/2016 15:09:29 22.63, 159.83 11/13/2016 15:11:42 23.24, 157.16 281.80 133
7 11/16/2016 03:31:19 22.65, 147.51 11/16/2016 03:27:52 22.30, 145.78 182.05 207




NCC Satellite Simultaneous Nadir Overpasses (SNOs) Prediction Service
